loading
DOY 175 | 2024-06-23T16:59:04Z

THOR ABLESTAR DEB, 235

Orbit data source: Space-Track

THOR ABLESTAR DEB, 235 is space debris in LEO originally from a launch on Thu, 29 Jun 1961 UTC launched from the Air Force Eastern Test Range (AFETR). Debris objects in space refer to the collection of defunct objects orbiting the Earth. Examples of debris include non-operational satellites, rocket bodies, and fragments generated from explosions, collisions, or faulty payload assembly.

Loading next visibility...
Loading greatness...
THOR ABLESTAR DEB details
NORAD ID235
COSPAR ID
1961-015BT
Orbit
LEO
Last TLE update1 day ago
Origin
Flag of USUSAF SSD (US)
ManufacturerUnknown
BusUnknown
MotorUnknown
MassWet unknown, Dry mass unknown
Launch date (UTC)
1961-06-29 (63 years ago)
Launch vehicleUnknown
Launch site
Air Force Eastern Test Range (AFETR)
Object type
Payload
Rocket body
Debris
Radar Cross SectionSmall (<0.1 m²)
Predictive object data (real-time)
Latitude-44.45328°
Longitude89.63028°
Altitude974.498 km
Speed7.313 km/s
Apparent Right ascension16h 49m 14s
Apparent Declination-42° 36' 02"
Sunlit
Object is in full shadow
Predictive observer data (real-time)
Local Sidereal Time04:08:00
Azimuth247.535° W
Elevation-81.807°
Doppler factor1
Orbital elements
Apogee973.913 km
Perigee741.219 km
Semi-major axis7,235.703 km
Eccentricity0.0160796
Inclination66.9563°
RAAN288.9005°
Arg. of periapsis162.6931°
True anomaly197.41531°
Mean anomaly197.9732°
Mean motion3.52632 °/min
BSTAR0.00037962
Period102.09 mins
Definitive object data (Epoch: 2024-06-22T17:23:34.466Z)
Latitude-0.00001°
Longitude116.62296°
Altitude972.196 km
Speed7.309 km/s
True Right ascension19h 15m 36s
True Declination0° 00' 00"
Sunlit
Object was in full shadow at TLE epoch
TLE from 1 day ago
0 THOR ABLESTAR DEB
1 00235U 61015BT  24174.72470447  .00000678  00000-0  37962-3 0  9997
2 00235  66.9563 288.9005 0160796 162.6931 197.9732 14.10048451219138
Epoch: 2024-06-22T17:23Z
No data available

THOR ABLESTAR DEB Visibility forecast

Observer location: 39.9160978°, -105.1181434, 0m alt.

THOR ABLESTAR DEB is not visible in the next 10 days
Span
Click to sort rows by Start time (UTC) header in descending order
Start Az.
Max El. time (UTC)
Max El. Az.
Max El.
End time (UTC)
End Az.